Theta_e
320 319 317 317 315 316 320 321 323 323 323 325 324 323 324 325 324 324 327 330 328 314 311 311 321 321 313 315 316 317 316 317 317 316 317 318 317 317 319 319 319 322 325 324 333
320 319 317 317 315 316 320 321 322 323 324 326 323 321 318 319 320 320 326 328 330 328 320 318 321 319 314 316 315 314 315 318 316 316 315 317 318 317 317 318 324 325 325 324 333
320 319 317 316 315 316 319 320 322 324 323 326 323 322 317 318 317 317 317 324 325 320 325 322 319 318 314 316 316 315 316 315 316 316 317 318 316 316 316 314 319 325 326 328 333
320 319 317 316 315 317 319 321 321 323 324 325 323 318 317 316 314 314 318 320 324 317 313 312 314 314 313 314 316 315 315 315 316 316 316 315 317 315 316 316 317 318 321 329 330
319 318 316 315 314 317 319 320 322 324 325 324 319 317 316 315 315 312 319 320 324 315 315 313 313 314 313 314 315 315 315 316 316 316 318 316 316 315 315 317 317 320 327 328 329
317 318 316 315 314 315 318 320 323 322 322 319 318 317 314 311 312 311 319 319 317 321 319 318 315 314 315 314 314 315 315 314 315 315 316 315 315 316 316 317 317 321 325 324 325
318 317 315 315 314 316 318 319 322 323 319 316 316 312 312 313 312 310 316 311 310 311 316 320 320 319 315 313 314 314 313 312 312 314 314 315 314 314 316 317 317 320 322 323 321
316 317 315 314 315 315 317 320 322 320 314 314 312 312 313 313 311 311 314 310 311 311 311 312 312 317 313 314 312 312 310 311 311 312 314 313 315 313 314 316 318 319 322 322 321
317 316 315 314 316 315 317 321 321 316 315 313 313 313 312 313 311 312 315 312 312 314 312 313 312 312 312 310 310 310 310 310 312 312 311 312 314 314 314 315 316 319 320 321 320
317 315 314 314 315 317 319 321 320 317 314 313 313 312 311 310 312 311 315 314 313 311 312 314 314 312 311 310 312 311 311 310 311 310 311 311 311 310 313 313 315 315 314 315 317
316 315 314 314 316 318 319 318 318 317 315 312 312 310 309 310 311 312 311 312 311 311 311 313 314 316 314 310 310 309 311 311 311 309 311 309 310 310 311 310 311 312 313 313 313
315 315 314 315 316 317 318 316 316 314 312 309 310 309 310 310 310 311 312 311 310 310 309 311 315 313 312 310 310 311 310 310 310 311 310 310 310 309 310 310 311 313 312 313 313
315 314 314 315 316 316 316 314 312 312 309 310 310 309 310 310 309 310 312 311 309 309 308 310 311 313 311 310 311 310 309 309 311 310 309 309 307 308 309 311 312 313 313 313 313
315 314 314 315 315 316 313 310 310 309 305 308 309 309 310 310 310 309 311 312 309 310 307 308 309 310 310 310 310 311 308 309 309 308 309 307 307 304 304 306 308 312 313 314 313
314 313 315 314 316 314 312 309 309 308 308 307 308 309 309 310 309 309 311 310 308 307 307 309 308 309 310 311 309 311 309 309 308 308 307 308 305 304 306 307 305 308 312 313 313
314 314 314 314 315 314 309 309 309 307 310 308 308 309 308 309 309 309 310 310 310 308 308 308 308 308 309 309 309 308 308 308 306 305 308 306 305 305 305 308 309 308 310 312 312
314 314 314 315 313 310 309 309 307 308 307 307 308 309 308 308 308 307 308 307 307 308 309 308 308 307 308 309 309 309 307 308 308 308 307 305 304 306 305 305 306 308 309 310 311
314 314 314 314 313 310 310 307 303 304 307 306 309 309 308 308 308 307 306 309 305 307 306 307 309 307 307 308 308 308 308 309 309 308 306 305 307 307 306 307 309 309 310 311 312
313 314 313 313 310 310 309 309 304 306 307 308 309 309 308 308 307 307 306 309 306 304 307 307 308 307 307 308 308 309 309 308 308 301 308 306 305 306 305 307 308 309 311 311 311
314 313 313 313 310 311 308 307 306 306 307 308 309 307 308 308 308 306 305 306 306 305 306 307 309 308 307 308 308 308 307 310 308 309 307 305 306 306 307 307 308 308 310 311 311
313 313 312 312 310 310 309 306 307 310 308 307 308 307 307 307 306 306 306 306 305 305 306 307 308 309 307 308 308 307 307 307 309 308 308 307 306 304 306 307 306 309 311 311 311
312 311 312 312 310 306 307 305 309 311 310 310 307 307 307 308 307 306 306 308 308 306 306 308 308 308 308 307 307 307 307 307 309 308 307 307 306 305 305 308 307 307 311 311 311
309 309 311 311 310 309 304 308 309 311 311 310 308 308 306 308 308 307 307 308 307 307 307 308 307 308 310 308 307 308 307 307 306 306 308 308 306 305 307 308 307 307 308 310 311
308 309 310 310 307 309 306 307 309 310 312 311 310 308 307 307 308 308 309 309 307 308 308 309 308 308 308 308 308 309 308 307 307 308 307 306 307 306 308 308 308 308 308 310 311
306 309 310 310 308 308 306 307 309 311 311 311 311 308 308 308 308 309 310 309 309 308 309 309 305 305 308 307 307 307 308 308 308 309 308 309 307 306 307 306 309 310 310 310 310
303 307 307 309 308 308 307 306 309 310 311 312 310 310 310 308 308 310 309 309 308 308 306 305 302 305 305 307 308 308 307 307 308 308 308 306 306 305 308 308 310 311 311 311 311
300 306 309 309 306 307 307 307 308 308 309 310 311 310 310 311 309 309 309 308 307 308 307 306 303 301 303 304 305 309 307 307 307 307 307 307 308 305 305 306 309 311 311 312 312
Wind_Speed
42 44 41 41 31 42 48 45 37 32 28 24 19 15 18 17 16 19 23 25 25 25 18 19 21 17 11 11 6 4 3 3 5 6 5 8 5 6 9 13 7 8 11 8 29
42 46 42 39 33 39 48 47 41 35 30 28 24 18 17 16 15 18 18 24 26 21 24 19 18 21 8 7 8 4 3 7 5 4 5 8 11 12 7 11 5 10 10 22 32
41 46 43 39 33 40 48 46 41 35 33 28 26 21 18 14 8 10 20 21 22 18 24 18 17 18 12 10 6 9 5 3 0 7 14 15 11 5 18 2 12 22 24 27 32
42 46 43 40 37 40 45 43 40 36 34 30 28 23 19 16 6 3 14 22 24 25 24 22 24 14 6 6 14 6 13 6 5 6 7 13 15 7 14 7 13 16 21 27 29
41 47 43 40 38 42 43 42 39 36 39 32 28 25 23 13 6 4 13 20 27 31 28 21 16 9 5 6 7 4 4 4 7 5 7 10 8 7 11 9 14 19 25 25 26
37 47 45 41 38 43 44 40 38 36 30 29 27 27 22 7 10 8 18 25 25 30 29 26 12 8 6 3 6 7 6 5 4 6 9 7 5 8 11 11 18 26 27 24 24
42 47 44 41 39 42 44 40 38 35 28 29 31 28 21 10 9 10 25 28 23 21 25 19 18 11 6 7 10 3 5 3 5 6 4 11 2 6 14 16 23 28 27 25 22
52 46 44 41 41 44 43 40 37 35 32 31 29 25 7 11 11 16 30 28 20 17 17 18 16 19 12 8 5 5 4 5 4 7 4 2 9 8 15 23 22 27 26 25 23
47 48 44 43 41 45 42 42 38 35 34 30 25 12 5 17 15 14 28 30 25 18 11 18 17 4 3 7 2 4 5 5 3 9 1 2 5 8 20 26 25 26 27 26 24
52 49 46 45 44 45 44 42 38 36 31 25 16 7 10 15 22 16 24 31 25 19 11 13 5 2 1 4 10 5 4 2 6 6 4 3 7 3 20 26 28 27 26 26 26
51 50 48 48 47 45 45 45 36 19 38 13 18 5 6 15 21 21 21 21 22 20 5 12 8 19 16 2 3 4 5 6 4 4 6 9 8 8 12 17 20 24 25 26 28
53 52 49 49 50 50 51 39 41 25 15 6 16 8 9 24 14 25 28 16 13 8 11 4 22 12 9 6 6 4 4 6 1 2 4 3 10 8 7 12 27 29 27 25 23
55 53 51 51 52 52 52 39 33 41 12 10 20 16 18 18 10 25 33 12 10 9 10 8 6 19 12 7 11 6 6 4 3 3 2 2 7 6 8 25 24 27 26 23 24
56 53 54 54 52 52 44 32 31 40 5 6 9 13 14 12 2 22 33 16 5 17 10 5 8 22 8 15 12 13 5 6 7 6 5 3 5 6 6 10 12 32 30 28 24
59 57 58 60 43 52 52 43 46 15 5 12 7 11 18 18 17 16 33 10 9 7 7 7 9 15 16 10 9 8 5 8 5 5 5 1 1 7 2 6 10 25 39 33 25
60 60 59 52 39 48 44 45 20 4 7 10 14 9 10 7 6 20 22 7 10 5 3 5 3 9 10 4 9 6 6 5 4 3 1 5 6 5 5 7 4 7 23 26 24
62 61 60 47 50 48 45 40 4 6 8 9 9 12 14 6 5 5 13 8 7 8 14 3 3 1 4 6 2 7 5 1 1 1 5 1 3 8 6 7 6 7 14 21 24
64 61 57 45 57 47 45 11 5 5 11 4 8 16 9 9 2 7 10 12 7 4 5 6 4 6 4 6 8 4 7 5 6 4 3 3 6 6 7 4 15 13 14 22 23
66 59 54 50 61 45 33 16 8 7 8 10 9 15 4 6 7 6 10 19 9 7 7 6 4 3 1 1 5 4 6 4 6 3 3 4 6 9 6 3 2 13 21 23 22
66 53 50 52 60 43 13 11 5 6 11 18 7 7 9 21 8 9 12 9 6 9 3 6 4 1 1 2 2 6 8 3 2 5 3 4 5 6 6 9 6 9 20 22 20
38 29 48 50 54 24 15 8 4 6 18 7 7 7 8 10 7 12 14 3 10 8 4 4 4 2 2 5 8 3 3 1 5 4 6 2 6 7 8 9 12 18 27 24 22
30 6 59 59 12 7 14 7 5 5 3 4 5 5 11 14 6 8 12 6 26 13 9 3 5 4 5 1 1 0 5 5 7 7 2 4 6 1 5 4 14 21 26 21 21
23 16 48 57 14 16 4 4 3 5 5 5 5 4 5 12 6 4 7 4 18 14 11 7 1 4 3 3 1 5 4 3 5 3 6 5 5 1 4 5 5 17 24 24 24
17 7 16 33 12 20 14 14 5 2 3 4 6 5 8 7 3 8 5 2 6 15 17 13 4 7 10 6 7 6 6 5 5 3 4 7 6 5 6 6 5 12 22 26 27
7 8 22 20 17 22 18 15 7 7 1 7 3 8 9 5 4 6 4 4 2 8 10 6 5 3 3 3 2 6 13 15 10 17 9 13 10 8 7 7 10 14 20 24 24
8 11 16 17 27 25 20 17 16 5 7 4 8 6 4 9 8 9 8 4 6 1 6 2 3 2 3 5 1 0 7 13 22 11 17 4 7 6 9 10 13 18 22 25 26
8 23 28 23 21 21 25 22 20 11 6 6 13 7 5 4 8 11 7 13 11 10 5 8 6 4 5 2 3 5 12 15 11 15 10 13 18 5 3 9 18 21 25 26 25
Wind_Direction
218 217 213 214 212 203 198 198 202 198 199 199 202 206 191 181 184 198 205 204 200 171 154 165 179 163 166 172 161 174 73 203 199 170 234 189 151 157 151 141 147 156 169 181 165
215 211 210 206 208 201 194 198 201 195 198 196 196 202 189 181 188 206 198 198 205 201 207 181 170 162 155 177 171 140 152 208 191 211 213 201 161 141 140 131 106 145 149 156 167
208 208 206 202 209 199 193 196 198 193 195 194 195 200 180 166 182 236 204 197 188 185 198 196 179 163 182 203 190 163 200 194 266 301 232 184 161 130 146 215 183 161 153 162 172
210 204 203 201 206 196 192 194 195 192 196 193 189 191 170 164 170 209 203 199 188 178 174 168 169 160 159 181 183 153 223 238 289 331 182 175 163 152 170 196 198 193 182 169 179
214 198 198 197 195 192 191 191 188 189 182 185 181 177 165 183 206 207 183 180 180 184 190 173 159 145 163 194 146 207 170 209 266 275 217 173 167 173 203 189 177 179 178 180 187
213 194 193 191 188 191 189 187 188 192 178 178 174 168 169 179 155 166 170 167 175 187 199 197 198 118 201 217 167 198 201 149 252 235 170 185 163 161 195 183 176 180 186 190 195
207 192 187 185 185 188 186 187 187 181 177 172 163 167 182 168 171 169 171 165 165 169 179 198 213 172 130 307 239 177 128 53 220 213 226 156 84 208 182 179 174 186 192 194 200
195 189 180 181 184 182 186 185 180 173 170 167 164 172 190 176 153 167 176 174 177 164 165 179 151 180 183 206 161 141 101 152 225 179 244 231 226 228 191 181 183 189 197 197 202
195 185 176 179 180 177 180 179 172 167 169 165 164 167 218 181 193 153 181 184 184 189 199 195 180 155 173 142 96 220 188 172 188 184 54 222 235 216 194 189 188 194 201 206 208
186 179 176 177 177 175 174 166 159 156 160 162 177 171 207 184 192 169 179 186 197 187 166 184 148 25 223 158 197 181 145 171 172 199 144 252 271 254 195 195 199 201 209 211 214
177 176 175 177 174 168 161 152 140 141 166 171 182 192 175 166 182 184 175 188 191 175 151 169 174 204 209 104 230 149 171 195 222 177 142 202 237 238 200 208 211 212 216 220 223
177 173 169 175 173 173 170 163 168 178 138 177 196 158 176 167 155 178 175 166 173 165 133 147 212 185 222 222 247 230 206 215 211 112 138 164 249 251 223 233 221 216 220 221 225
174 170 170 172 172 174 174 169 163 155 138 187 181 189 153 164 159 169 176 162 152 161 176 183 175 198 209 212 218 232 195 225 213 116 72 95 290 247 237 237 244 235 233 230 224
171 169 170 170 170 172 167 158 160 151 100 173 175 202 169 157 181 183 182 154 168 189 156 217 207 180 175 212 196 229 192 208 157 141 193 164 264 258 241 244 218 234 233 231 223
171 169 171 175 168 170 164 158 154 174 137 163 168 182 168 163 144 186 183 191 162 170 137 210 163 187 190 196 181 226 149 175 158 136 122 207 111 265 249 249 236 232 231 229 224
171 171 171 171 174 168 160 159 157 132 206 177 154 159 141 175 160 155 182 188 175 134 66 184 201 171 180 146 174 137 99 60 62 99 213 205 164 268 205 210 252 210 232 224 215
171 175 174 172 164 163 165 162 122 186 156 174 164 164 158 146 124 154 178 182 168 140 178 136 189 217 138 105 86 157 147 127 90 227 210 101 155 247 263 248 232 202 198 192 196
172 172 174 171 168 158 156 157 137 203 172 143 133 140 159 133 93 162 139 199 245 155 127 148 203 177 167 182 169 188 161 156 172 185 223 96 225 245 239 275 245 259 208 182 185
169 167 173 172 171 165 167 186 191 170 148 124 93 143 129 169 131 150 194 195 191 196 150 148 196 338 86 75 159 183 204 145 98 28 74 215 281 295 231 247 158 174 171 180 184
164 163 172 174 177 171 184 187 166 178 123 138 141 163 167 175 148 175 172 192 198 185 163 186 128 342 321 188 93 173 156 129 356 131 242 271 280 235 237 221 172 176 185 187 189
150 155 170 169 171 169 194 185 165 160 139 141 149 146 162 167 149 173 186 209 178 187 139 125 101 262 147 213 168 143 193 125 118 149 171 183 258 224 220 198 195 202 195 191 189
162 136 166 168 164 180 193 170 138 151 157 126 114 111 162 162 134 167 183 190 189 148 154 129 116 146 196 238 292 61 238 164 185 208 199 159 259 182 227 212 216 205 198 196 197
137 121 163 168 178 184 167 154 98 145 155 155 130 144 156 162 134 163 176 169 180 174 160 175 158 97 39 2 158 197 210 174 108 74 195 153 252 128 274 278 232 202 196 193 191
139 133 152 183 192 171 166 181 125 53 126 119 119 108 113 159 69 171 132 153 174 193 177 137 160 166 190 193 137 187 188 188 137 160 171 221 228 275 219 204 190 186 188 190 194
142 155 168 176 192 180 179 172 143 151 191 155 83 158 141 129 105 142 130 123 71 152 146 150 201 134 49 357 118 168 184 187 198 215 194 237 210 231 235 216 198 185 186 191 198
131 158 167 167 167 172 179 199 172 144 146 181 136 139 138 152 180 176 132 160 170 138 141 121 238 110 12 347 74 306 198 188 220 218 238 347 250 211 202 196 193 192 191 199 207
102 152 157 161 170 177 192 182 174 135 15 143 132 108 85 119 101 123 130 140 150 151 143 138 130 116 231 334 73 305 207 210 218 218 212 222 239 159 192 196 199 199 208 217 219